EZS01P LSGG-ELLX

Flight info

Callsign EZS01P
Flight time 0h 47m
Altitude 28000
Route ARBOS1N/04 ARBOS DCT PENDU DCT EPL G21 GIVOR
Aircraft A320/M-SDE3FGHIRWY/LB1

Departure

Time 2026-05-07 20:24
Airport Geneva International Airport (LSGG)

Arrival

Time 2026-05-07 21:12
Airport Luxembourg-Findel International Airport (ELLX)
Time Latitude Longitude Altitude Speed Heading
2026-05-07 19:57 46.23006 6.10532 1400 ft 0 kts 135°
2026-05-07 20:15 46.23016 6.10517 1404 ft 4 kts 146°
2026-05-07 20:15 46.23040 6.10503 1402 ft 4 kts 182°
2026-05-07 20:15 46.23064 6.10514 1400 ft 4 kts 214°
2026-05-07 20:15 46.23085 6.10538 1402 ft 4 kts 219°
2026-05-07 20:16 46.23090 6.10544 1402 ft 0 kts 217°
2026-05-07 20:20 46.23070 6.10473 1393 ft 12 kts 308°
2026-05-07 20:20 46.23135 6.10391 1395 ft 13 kts 316°
2026-05-07 20:20 46.23168 6.10320 1401 ft 0 kts 272°
2026-05-07 20:21 46.23154 6.10278 1396 ft 14 kts 237°
2026-05-07 20:21 46.23083 6.10172 1396 ft 14 kts 225°
2026-05-07 20:21 46.23019 6.10080 1403 ft 12 kts 225°
2026-05-07 20:21 46.22965 6.10001 1398 ft 10 kts 226°
2026-05-07 20:22 46.22920 6.09930 1402 ft 10 kts 227°
2026-05-07 20:22 46.22851 6.09830 1406 ft 16 kts 225°
2026-05-07 20:22 46.22781 6.09724 1397 ft 14 kts 226°
2026-05-07 20:22 46.22718 6.09631 1400 ft 13 kts 225°
2026-05-07 20:23 46.22632 6.09517 1406 ft 20 kts 224°
2026-05-07 20:23 46.22551 6.09349 1402 ft 19 kts 251°
2026-05-07 20:23 46.22552 6.09220 1413 ft 8 kts 289°
2026-05-07 20:23 46.22598 6.09162 1417 ft 20 kts 341°
2026-05-07 20:24 46.22771 6.09368 1418 ft 54 kts 46°
2026-05-07 20:24 46.23243 6.10069 1405 ft 138 kts 45°
2026-05-07 20:24 46.24036 6.11243 1736 ft 173 kts 47°
2026-05-07 20:24 46.24879 6.12532 2688 ft 178 kts 45°
2026-05-07 20:25 46.25755 6.13818 3399 ft 187 kts 46°
2026-05-07 20:25 46.26734 6.15245 3628 ft 215 kts 46°
2026-05-07 20:25 46.27858 6.16890 3975 ft 243 kts 46°
2026-05-07 20:25 46.29075 6.18670 4626 ft 258 kts 46°
2026-05-07 20:26 46.30353 6.20544 5464 ft 265 kts 46°
2026-05-07 20:26 46.31671 6.22480 6286 ft 274 kts 46°
2026-05-07 20:26 46.33023 6.24468 7078 ft 282 kts 46°
2026-05-07 20:26 46.34412 6.26512 7911 ft 288 kts 46°
2026-05-07 20:27 46.35907 6.28469 8727 ft 295 kts 31°
2026-05-07 20:27 46.37852 6.29418 9513 ft 299 kts
2026-05-07 20:27 46.39944 6.29374 10279 ft 306 kts 355°
2026-05-07 20:27 46.42140 6.29259 10620 ft 327 kts 356°
2026-05-07 20:28 46.44471 6.29166 11174 ft 339 kts 356°
2026-05-07 20:28 46.46880 6.29092 11961 ft 344 kts 357°
2026-05-07 20:28 46.49248 6.29032 12782 ft 346 kts 357°
2026-05-07 20:28 46.51668 6.28975 13607 ft 349 kts 357°
2026-05-07 20:29 46.54104 6.28917 14336 ft 352 kts 357°
2026-05-07 20:29 46.56561 6.28854 15031 ft 355 kts 357°
2026-05-07 20:29 46.59037 6.28786 15712 ft 358 kts 357°
2026-05-07 20:29 46.61537 6.28717 16398 ft 361 kts 356°
2026-05-07 20:30 46.63237 6.28668 16867 ft 363 kts 356°
2026-05-07 20:30 46.65749 6.28301 17540 ft 363 kts 346°
2026-05-07 20:30 46.68171 6.27248 18212 ft 364 kts 335°
2026-05-07 20:30 46.70430 6.25596 18792 ft 365 kts 328°
2026-05-07 20:31 46.72650 6.23789 19377 ft 367 kts 328°
2026-05-07 20:31 46.74890 6.21960 19944 ft 370 kts 328°
2026-05-07 20:31 46.77149 6.20113 20514 ft 373 kts 328°
2026-05-07 20:31 46.79393 6.18277 21066 ft 376 kts 328°
2026-05-07 20:32 46.81840 6.16742 21622 ft 383 kts 343°
2026-05-07 20:32 46.84442 6.16009 22152 ft 387 kts 347°
2026-05-07 20:32 46.87107 6.15330 22687 ft 390 kts 347°
2026-05-07 20:32 46.89794 6.14660 23219 ft 393 kts 347°
2026-05-07 20:33 46.92502 6.13991 23717 ft 396 kts 347°
2026-05-07 20:33 46.95233 6.13316 24124 ft 400 kts 347°
2026-05-07 20:33 46.97983 6.12629 24537 ft 402 kts 347°
2026-05-07 20:33 47.00761 6.11929 24952 ft 405 kts 347°
2026-05-07 20:34 47.03545 6.11222 25391 ft 407 kts 347°
2026-05-07 20:34 47.06344 6.10511 25819 ft 409 kts 347°
2026-05-07 20:34 47.09157 6.09795 26225 ft 412 kts 347°
2026-05-07 20:34 47.11993 6.09074 26628 ft 414 kts 347°
2026-05-07 20:35 47.14842 6.08353 27019 ft 417 kts 347°
2026-05-07 20:35 47.17714 6.07625 27405 ft 420 kts 347°
2026-05-07 20:35 47.20601 6.06894 27788 ft 422 kts 346°
2026-05-07 20:35 47.23503 6.06160 28024 ft 423 kts 347°
2026-05-07 20:36 47.26350 6.05443 28039 ft 407 kts 347°
2026-05-07 20:36 47.31780 6.04065 28043 ft 394 kts 346°
2026-05-07 20:37 47.37247 6.03321 28043 ft 398 kts 357°
2026-05-07 20:37 47.42783 6.03486 28044 ft 398 kts 357°
2026-05-07 20:38 47.48315 6.03638 28047 ft 397 kts 357°
2026-05-07 20:38 47.53836 6.03778 28044 ft 397 kts 357°
2026-05-07 20:39 47.59359 6.03929 28041 ft 397 kts 357°
2026-05-07 20:39 47.64872 6.04081 28058 ft 396 kts 357°
2026-05-07 20:40 47.70393 6.04226 28050 ft 396 kts 358°
2026-05-07 20:40 47.75908 6.04380 28049 ft 396 kts 358°
2026-05-07 20:41 47.81412 6.04535 28025 ft 392 kts 358°
2026-05-07 20:41 47.84108 6.04615 27685 ft 384 kts 358°
2026-05-07 20:41 47.86774 6.04694 27491 ft 382 kts 358°
2026-05-07 20:41 47.89426 6.04770 27312 ft 381 kts 358°
2026-05-07 20:42 47.92075 6.04844 27124 ft 380 kts 358°
2026-05-07 20:42 47.94712 6.04917 26962 ft 379 kts 358°
2026-05-07 20:42 47.97344 6.04988 26800 ft 378 kts 358°
2026-05-07 20:42 47.99972 6.05057 26650 ft 377 kts 358°
2026-05-07 20:43 48.02548 6.05124 26509 ft 376 kts 358°
2026-05-07 20:43 48.05163 6.05191 26382 ft 375 kts 358°
2026-05-07 20:43 48.07770 6.05260 26269 ft 374 kts 358°
2026-05-07 20:43 48.10370 6.05332 26137 ft 373 kts 358°
2026-05-07 20:44 48.12965 6.05409 25986 ft 372 kts 358°
2026-05-07 20:44 48.15556 6.05485 25835 ft 371 kts 358°
2026-05-07 20:44 48.18139 6.05558 25684 ft 371 kts 358°
2026-05-07 20:44 48.20711 6.05629 25536 ft 370 kts 358°
2026-05-07 20:45 48.23281 6.05702 25385 ft 369 kts 358°
2026-05-07 20:45 48.25847 6.05774 25237 ft 368 kts 358°
2026-05-07 20:45 48.28402 6.05884 25099 ft 368 kts
2026-05-07 20:45 48.30929 6.06508 24951 ft 369 kts 12°
2026-05-07 20:46 48.33360 6.07783 24808 ft 371 kts 22°
2026-05-07 20:46 48.35621 6.09663 24663 ft 372 kts 31°
2026-05-07 20:46 48.37796 6.11779 24519 ft 372 kts 31°
2026-05-07 20:46 48.39968 6.13885 24369 ft 371 kts 31°
2026-05-07 20:47 48.42114 6.15962 24231 ft 370 kts 31°
2026-05-07 20:47 48.44279 6.18059 24094 ft 369 kts 31°
2026-05-07 20:47 48.46440 6.20154 23954 ft 368 kts 31°
2026-05-07 20:47 48.48589 6.22245 23821 ft 368 kts 31°
2026-05-07 20:48 48.50707 6.24309 23681 ft 367 kts 31°
2026-05-07 20:48 48.52843 6.26397 23542 ft 366 kts 31°
2026-05-07 20:48 48.54978 6.28483 23367 ft 365 kts 31°
2026-05-07 20:48 48.57106 6.30565 23200 ft 364 kts 31°
2026-05-07 20:49 48.59228 6.32644 23047 ft 363 kts 31°
2026-05-07 20:49 48.61346 6.34721 22882 ft 362 kts 31°
2026-05-07 20:49 48.63455 6.36792 22718 ft 361 kts 31°
2026-05-07 20:49 48.65618 6.38699 22557 ft 359 kts 22°
2026-05-07 20:50 48.67945 6.39995 22391 ft 355 kts 12°
2026-05-07 20:50 48.70331 6.40935 22229 ft 354 kts 12°
2026-05-07 20:50 48.72708 6.41884 22068 ft 353 kts 12°
2026-05-07 20:50 48.75080 6.42842 21909 ft 353 kts 12°
2026-05-07 20:51 48.77448 6.43801 21752 ft 352 kts 12°
2026-05-07 20:51 48.79812 6.44759 21593 ft 351 kts 12°
2026-05-07 20:51 48.82164 6.45709 21404 ft 349 kts 12°
2026-05-07 20:51 48.84504 6.46653 20981 ft 347 kts 12°
2026-05-07 20:52 48.86826 6.47590 20558 ft 344 kts 12°
2026-05-07 20:52 48.89140 6.48526 20141 ft 343 kts 12°
2026-05-07 20:52 48.91438 6.49456 19733 ft 341 kts 12°
2026-05-07 20:52 48.93725 6.50387 19324 ft 340 kts 12°
2026-05-07 20:53 48.96009 6.51318 18914 ft 339 kts 12°
2026-05-07 20:53 48.98282 6.52242 18511 ft 338 kts 12°
2026-05-07 20:53 49.00552 6.53162 18068 ft 337 kts 12°
2026-05-07 20:53 49.02812 6.54078 17662 ft 335 kts 12°
2026-05-07 20:54 49.05054 6.54992 17254 ft 333 kts 13°
2026-05-07 20:54 49.07285 6.55904 16870 ft 331 kts 13°
2026-05-07 20:54 49.09507 6.56812 16485 ft 329 kts 13°
2026-05-07 20:54 49.11714 6.57715 16103 ft 328 kts 13°
2026-05-07 20:55 49.13918 6.58616 15722 ft 327 kts 13°
2026-05-07 20:55 49.16115 6.59514 15346 ft 326 kts 13°
2026-05-07 20:55 49.18305 6.60412 14971 ft 325 kts 13°
2026-05-07 20:55 49.20492 6.61278 14585 ft 324 kts
2026-05-07 20:56 49.22721 6.61541 14210 ft 321 kts 355°
2026-05-07 20:56 49.24886 6.60962 14069 ft 312 kts 341°
2026-05-07 20:56 49.26887 6.59720 14073 ft 310 kts 334°
2026-05-07 20:56 49.28854 6.58366 14074 ft 310 kts 334°
2026-05-07 20:57 49.30821 6.57016 14078 ft 310 kts 334°
2026-05-07 20:57 49.32789 6.55667 14079 ft 310 kts 334°
2026-05-07 20:57 49.34760 6.54315 14072 ft 310 kts 334°
2026-05-07 20:57 49.36727 6.52960 13418 ft 313 kts 334°
2026-05-07 20:58 49.38752 6.51562 12360 ft 322 kts 334°
2026-05-07 20:58 49.40790 6.50156 11543 ft 320 kts 334°
2026-05-07 20:58 49.42789 6.48774 11125 ft 307 kts 334°
2026-05-07 20:58 49.44704 6.47448 10622 ft 298 kts 334°
2026-05-07 20:59 49.46581 6.46157 10031 ft 294 kts 336°
2026-05-07 20:59 49.48541 6.45329 9337 ft 292 kts 352°
2026-05-07 20:59 49.50553 6.45305 8840 ft 284 kts
2026-05-07 20:59 49.52528 6.45290 8708 ft 285 kts 347°
2026-05-07 21:00 49.54310 6.44069 8584 ft 281 kts 321°
2026-05-07 21:00 49.55536 6.41777 8468 ft 279 kts 294°
2026-05-07 21:00 49.55962 6.38898 8338 ft 277 kts 268°
2026-05-07 21:00 49.55542 6.36022 8007 ft 276 kts 243°
2026-05-07 21:01 49.54359 6.33742 7646 ft 275 kts 218°
2026-05-07 21:01 49.52817 6.32010 7310 ft 275 kts 221°
2026-05-07 21:01 49.51550 6.29879 6919 ft 273 kts 234°
2026-05-07 21:01 49.50602 6.27357 6541 ft 272 kts 245°
2026-05-07 21:02 49.49873 6.24682 6126 ft 270 kts 246°
2026-05-07 21:02 49.49065 6.22078 5706 ft 269 kts 243°
2026-05-07 21:02 49.48217 6.19539 5398 ft 264 kts 242°
2026-05-07 21:02 49.47371 6.17067 5034 ft 257 kts 242°
2026-05-07 21:03 49.46562 6.14691 4589 ft 243 kts 242°
2026-05-07 21:03 49.45811 6.12444 4270 ft 229 kts 242°
2026-05-07 21:03 49.45109 6.10329 3973 ft 214 kts 243°
2026-05-07 21:03 49.44473 6.08379 3729 ft 192 kts 243°
2026-05-07 21:04 49.44099 6.06561 3617 ft 166 kts 263°
2026-05-07 21:04 49.44082 6.04831 3312 ft 159 kts 274°
2026-05-07 21:04 49.44302 6.03207 3031 ft 151 kts 291°
2026-05-07 21:04 49.44776 6.01804 2981 ft 147 kts 306°
2026-05-07 21:05 49.45453 6.00641 2986 ft 146 kts 321°
2026-05-07 21:05 49.46290 5.99776 2984 ft 145 kts 334°
2026-05-07 21:05 49.47227 5.99263 2971 ft 143 kts 351°
2026-05-07 21:05 49.48211 5.99144 2945 ft 142 kts 359°
2026-05-07 21:06 49.49193 5.98952 2943 ft 143 kts 349°
2026-05-07 21:06 49.50150 5.98536 2968 ft 143 kts 345°
2026-05-07 21:06 49.51099 5.98068 2967 ft 143 kts 343°
2026-05-07 21:06 49.52044 5.97583 2957 ft 143 kts 348°
2026-05-07 21:07 49.53024 5.97543 2946 ft 141 kts 14°
2026-05-07 21:07 49.53888 5.98149 2979 ft 139 kts 39°
2026-05-07 21:07 49.54496 5.99278 2974 ft 137 kts 63°
2026-05-07 21:07 49.54962 6.00581 2964 ft 137 kts 62°
2026-05-07 21:08 49.55432 6.01841 2982 ft 137 kts 61°
2026-05-07 21:08 49.55906 6.03112 2987 ft 137 kts 61°
2026-05-07 21:08 49.56380 6.04384 2984 ft 137 kts 61°
2026-05-07 21:08 49.56856 6.05659 2991 ft 138 kts 61°
2026-05-07 21:09 49.57339 6.06933 2884 ft 138 kts 61°
2026-05-07 21:09 49.57817 6.08206 2705 ft 137 kts 61°
2026-05-07 21:09 49.58300 6.09468 2536 ft 136 kts 60°
2026-05-07 21:09 49.58767 6.10734 2339 ft 135 kts 61°
2026-05-07 21:10 49.59233 6.11994 2190 ft 135 kts 62°
2026-05-07 21:10 49.59705 6.13253 2002 ft 135 kts 60°
2026-05-07 21:10 49.60175 6.14515 1799 ft 136 kts 61°
2026-05-07 21:10 49.60641 6.15777 1623 ft 136 kts 60°
2026-05-07 21:11 49.61116 6.17040 1437 ft 136 kts 60°
2026-05-07 21:11 49.61587 6.18297 1272 ft 135 kts 60°
2026-05-07 21:11 49.62397 6.20487 1229 ft 80 kts 63°
2026-05-07 21:12 49.62639 6.21140 1245 ft 62 kts 60°
2026-05-07 21:12 49.62835 6.21675 1218 ft 52 kts 58°
2026-05-07 21:12 49.62973 6.22042 1214 ft 25 kts 61°
2026-05-07 21:12 49.63060 6.22121 1216 ft 12 kts 321°
2026-05-07 21:13 49.63114 6.22074 1221 ft 5 kts 332°
2026-05-07 21:13 49.63121 6.22069 1221 ft 0 kts 332°
2026-05-07 21:13 49.63150 6.22045 1225 ft 3 kts 330°
2026-05-07 21:13 49.63163 6.22028 1226 ft 9 kts 314°
2026-05-07 21:14 49.63160 6.21910 1227 ft 12 kts 241°
2026-05-07 21:14 49.63132 6.21793 1226 ft 11 kts 281°
2026-05-07 21:14 49.63177 6.21741 1228 ft 7 kts 330°
2026-05-07 21:14 49.63201 6.21720 1229 ft 4 kts 330°
2026-05-07 21:15 49.63230 6.21694 1230 ft 13 kts 330°
2026-05-07 21:15 49.63286 6.21701 1230 ft 8 kts 52°
2026-05-07 21:15 49.63304 6.21720 1230 ft 4 kts 13°
2026-05-07 21:15 49.63326 6.21705 1230 ft 3 kts 329°
2026-05-07 21:16 49.63342 6.21691 1230 ft 2 kts 330°
2026-05-07 21:16 49.63349 6.21685 1230 ft 1 kts 330°
2026-05-07 21:16 49.63351 6.21683 1230 ft 0 kts 330°